Погода в Оханске

Погода в Оханске : погода сейчас, прогноз погоды и архив. Всё, что Вы хотите узнать о погоде в Оханске!

Поиск расширенной информации на нашем сайте:

Другие новости

Новости СМИ2

Главная страница сайта

Новости сайта

02.10.2013

Напоминаем, что на нашем новом сайте вы можете получить высокодетализированные прогнозы погоды по пунктам России, СНГ и мира (включающие важные для авиации метеовеличины, такие как направление и скорость ветра, видимость, явления погоды, количество и форма облачности, нижняя и верхняя граница облачности), а также ознакомиться с разнообразными материалами по авиационной метеорологии и подборкой полезных ссылок на эту тему.

Сайт Метеоцентр.Азия посвящён разработке технологий оптимизации авиаметеорологического обслуживания, включая проектирование и перспективное создание нескольких автоматизированных авиаметеорологических систем:
- система выпуска высокодетальных прогностических карт явлений погоды для нижнего воздушного пространства по России и ближнему зарубежью;
- система верификации прогнозов TAF (выпускаемых синоптиками официальных АМСГ РФ и ближнего зарубежья) и AUTOTAF (выпускаемых сайтом Метеоцентр.Азия) - выявление ошибок, онлайн-сопоставление с фактической погодой METAR, автоматическое внесение коррективов в прогнозы при резком отклонении фактической погоды от прогноза, подсчёт оправдываемости прогнозов по элементам и в целом;
- система обработки, анализа и отображения авиаметеорологической информации для применения провайдерами метеорологической информации.

Рекомендуем: Детский трикотаж оптом из иваново valeriya-ivanovo.ru.

Погода в Оханске - сегодня

Время (UTC), дата Ветер
(°,м/с) 
Видим.   Явления Облачность Т
(°С)
Тd
(°С)
f(%) Тe
(°С)
Pmin
(гПа)
dP
(гПа)
Po
(мм)
O2
(г/м3)
Тmin Tmax R s Состояние
почвы
06 23.03.17 160 (Ю) 20000 м    3/0 верхняя 
[Ci fib]
+1 -11.4 39 -1  1023.5  -1.2  752  303           
09 23.03.17 160 (Ю) 20000 м    ясно 
+4.7 -9.7 34 +4  1021.4  -1.8  751  298           
12 23.03.17 200 (Ю) 20000 м    3/0 верхняя 
[Ci fib]
+4.7 -10.1 33 +3  1019.5  -1.9  749  298           
15 23.03.17 180 (Ю) 3{11}  20000 м    8/8 2000 м средняя 
[Ac trans]
+1.9 -6.9 52 1018.4  -1.3  749  300    +5.3       
18 23.03.17 210 (ЮЗ) 20000 м    10/10 2000 м 
[Ac und]
+0.6 -6.6 58 -2  1017.8  -0.6  748  301           
21 23.03.17 220 (ЮЗ) 4000 м  слаб. снег  10/10 2000 м 
[Ac As]
-0.4 -3.3 81 -2  1017.3  -0.6  748  302           
00 24.03.17 240 (ЮЗ) 20000 м  {снег}  10/10 2000 м 
[Ac As]
-1.2 -2.3 92 -2  1016.9  -0.5  747  303           
03 24.03.17 270 (З) 20000 м    9/9 2000 м средняя 
[Ac trans]
-0.8 -2.8 86 -3  1016.9  0.1  747  302  -1.3    66  равномерный
мокрый или
старый снег
100% 
06 24.03.17 240 (ЮЗ) 20000 м    9/6 600 м средняя 
[Sc|As op]
+0.6 -3 77 1017.4  0.5  748  301           
09 24.03.17 230 (ЮЗ) 20000 м    8/3 600 м средняя 
[Cu med, cong|Ac trans]
+2.4 -2.9 68 1016.7  -0.5  747  299           
12 24.03.17 240 (ЮЗ) 20000 м    6/3 600 м средняя 
[Cu med, cong|Ac trans]
+3.8 -2.6 63 +2  1015.4  -1.1  746  297           
15 24.03.17 210 (ЮЗ) 20000 м    8/3 600 м средняя, верхняя 
[Cu med, cong|Ac trans|Ci fib]
+2.1 -2.3 73 +1  1014.9  -0.6  746  299    +4       
18 24.03.17 250 (З) 20000 м    10/10 2000 м 
[Ac und]
+1.5 -1.5 80 1015.3  0.4  746  299           
21 24.03.17 230 (ЮЗ) 20000 м    4/4 2000 м средняя 
[Ac trans]
-0.7 -3.4 82 -2  1015.3  -0.2  746  302           
00 25.03.17 170 (Ю) 20000 м    ясно 
-2.6 -4.5 87 -4  1014.6  -0.8  746  304           
03 25.03.17 150 (ЮВ) 20000 м    9/6 2000 м средняя 
[Ac As]
-2.8 -4.2 90 -4  1013.4  -1.2  745  304  -3.1      65  равномерный
мокрый или
старый снег
100% 
06 25.03.17 160 (Ю) 20000 м    10/10 2000 м 
[Ns]
-0.4 -3.4 80 -1  1011.4  -1.8  743  300           
09 25.03.17 110 (В) 10 км  слаб. снег  10/10 2000 м 
[Ns]
+1.1 -2.4 77 -1  1007.4  -3.8  740  297           
12 25.03.17 160 (Ю) 6-11{13}  10 км  слаб. снег  10/10 600 м 
[Ns]
-0.2 -1.7 90 -4  1004.8  -2.6  738  298           
15 25.03.17 140 (ЮВ) 5{12}  4000 м  слаб. снег  10/10 600 м 
[Ns]
-0.7 -1.9 92 -4  1001.7  -3  736  298    +1.3     
18 25.03.17 150 (ЮВ) 4000 м  слаб. снег  10/10 600 м 
[Ns]
-0.1 -1.1 93 -3  999.8  -1.8  735  296           
21 25.03.17 170 (Ю) 20000 м  в посл. час снег  10/10 600 м 
[Ns]
+0.3 -0.7 93 -1  999.2  -0.6  734  296           
00 26.03.17 190 (Ю) 20000 м  {снег}  10/10 600 м 
[Ns]
+0 -0.9 94 -2  999.9  0.6  735  296           
03 26.03.17 190 (Ю) 20000 м    8/8 600 м 
[Cu Sc]
-0.1 -1.7 89 -2  1000.7  0.8  735  297  -0.7    67  равномерный
мокрый или
старый снег
100% 
06 26.03.17 160 (Ю) 20000 м  слаб. ливневой снег  10/8 600 м кучево-дожд., средняя 
[Cb calv|Ac trans]
+0.1 -2.1 85 -2  1000.9  0.2  736  296           
Время (UTC), дата Ветер
(°,м/с) 
Видим.   Явления Облачность Т
(°С)
Тd
(°С)
f(%) Тe
(°С)
Pmin
(гПа)
dP
(гПа)
Po
(мм)
O2
(г/м3)
Тmin Tmax R s Состояние
почвы

Для получения пояснительной информации подведите курсор к названию столбца.

ПОГОДА в Оханске - архив

Всё, что Вы хотите узнать о погоде в Оханске - удобно и подробно!

Выберите нужную дату (начиная с 1 января 2015* года) и нажмите кнопку "Найти".
Будут отображены архивные сводки погоды по пункту Оханск, начиная с указанной даты.


Отображать данные в формате CSV (для использования в таблицах Excel)


Внимание! Наш архив погоды предназначен исключительно для личного некоммерческого использования в познавательных целях. Если Вам необходимы официальные справки о состоянии погоды (для производственных, юридических, коммерческих и т.п. целей), обращайтесь в органы Росгидромета.

*Примечание: данная дата относится к архиву по метеостанциям СССР (Россия, СНГ, Балтия).
Архив по метеостанциям Зарубежной Европы и Азии (кроме Китая) хранится 10 дней, по другим регионам земного шара (Китай, Африка, Америка, Австралия, Океания) - 1 день.

Оханск - район местоположения метеостанции


Название, широта, долгота, высота метеостанции:
Оханск 57.7°ш. 55.4°д. 163 м над ур. моря [Российская Федерация]

Дополнительная информация

В oтличие oт бoльшинства пoгoдных сайтoв мы публикуем пoдрoбную метеoинфoрмацию в детальнoм прoфессиoнальнoм фoрмате.

Характеристики температуры и влажнoсти вoздуха измеряются на высoте 2 м в тени вдали oт зданий и деревьев.
Скoрoсть ветра измеряется на высoте 10 м (на урoвне рoста челoвека скoрoсть ветра ниже в 1.5-2 раза). Если метеoстанция нахoдится в гoрoде или в лесу, тo скoрoсть ветра занижена на 2-4 м/с пo сравнению с oткрытым местoм. Скoрoсть ветра над акватoриями крупных рек и oзёр, а также на вершинах хoлмoв на 2-5 м/с выше, чем в oбычных услoвиях.
Атмoсфернoе давление в разных тoчках местнoсти мoжет значительнo oтличаться oт давления на метеoстанции, в зависимoсти oт услoвий рельефа (при пoдъёме на 10 м давление пoнижается примернo на 1 мм рт.ст.).